Weather History for KHSB - November, 2013

Change the Weather History Date:

Friday, November 29, 2013

  Actual Average (KMWA) Record (KMWA)
Temperature  
Mean Temperature 34 °F -  
Max Temperature 46 °F 44 °F 73 °F (1998)
Min Temperature 22 °F 29 °F 7 °F (1976)
Degree Days  
Heating Degree Days 31    
Moisture  
Dew Point 25 °F    
Average Humidity 74    
Maximum Humidity 98    
Minimum Humidity 44    
Precipitation  
Precipitation 0.00 in - - ()
Sea Level Pressure  
Sea Level Pressure 30.53 in    
Wind  
Wind Speed 2 mph (East)    
Max Wind Speed 8 mph    
Max Gust Speed -    
Visibility 10 miles    
Events      
Averages and records for this station are not official NWS values.
T = Trace of Precipitation, MM = Missing Value Source: NWS Daily Summary

Daily Weather History Graph

Daily Weather History Graph

Search for Another Location

Airport or City:

Trip Planner

Search our weather history database for the weather conditions in past years. The results will help you decide how hot, cold, wet, or windy it might be!

Date:

Astronomy

Nov. 29, 2013 Rise Set
Actual Time 6:49 AM CST 4:35 PM CST
Civil Twilight 6:20 AM CST 5:04 PM CST
Nautical Twilight 5:47 AM CST 5:37 PM CST
Astronomical Twilight 5:16 AM CST 6:08 PM CST
Moon 2:58 AM CST (11/29) 2:17 PM CST (11/29)
Length of Visible Light 10h 44m
Length of Day
9h 46m
Waning Crescent, 14% of the Moon is Illuminated
Nov 29
Waning Crescent
Dec 2
New
Dec 9
First Quarter
Dec 17
Full
Dec 25
Last Quarter

Hourly Weather History & Observations

Time (CST) Temp. Windchill Dew Point Humidity Pressure Visibility Wind Dir Wind Speed Gust Speed Precip Events Conditions
12:15 AM 24.6 °F - 23.0 °F 94% 30.50 in 10.0 mi Calm Calm - N/A   Clear
12:35 AM 23.4 °F - 22.1 °F 95% 30.50 in 10.0 mi Calm Calm - N/A   Clear
12:55 AM 22.8 °F - 21.9 °F 96% 30.50 in 10.0 mi Calm Calm - N/A   Clear
1:15 AM 22.3 °F - 21.6 °F 97% 30.51 in 10.0 mi Calm Calm - N/A   Clear
1:35 AM 22.6 °F - 21.9 °F 97% 30.51 in 7.0 mi Calm Calm - N/A   Clear
1:55 AM 22.6 °F - 21.9 °F 97% 30.52 in 10.0 mi Calm Calm - N/A   Clear
2:15 AM 22.3 °F - 21.7 °F 98% 30.52 in 10.0 mi Calm Calm - N/A   Clear
2:35 AM 23.7 °F - 23.0 °F 97% 30.53 in 10.0 mi Calm Calm - N/A   Clear
2:55 AM 23.7 °F - 22.8 °F 96% 30.53 in 10.0 mi Calm Calm - N/A   Clear
3:15 AM 22.6 °F - 21.2 °F 94% 30.53 in 10.0 mi Calm Calm - N/A   Clear
3:35 AM 22.1 °F - 21.2 °F 96% 30.53 in 10.0 mi Calm Calm - N/A   Clear
3:55 AM 22.1 °F - 21.4 °F 97% 30.54 in 7.0 mi Calm Calm - N/A   Clear
4:15 AM 22.5 °F - 21.7 °F 97% 30.55 in 10.0 mi Calm Calm - N/A   Clear
4:35 AM 23.9 °F 19.5 °F 22.8 °F 96% 30.54 in 10.0 mi NNE 3.5 mph - N/A   Clear
4:55 AM 25.9 °F 20.3 °F 22.3 °F 86% 30.55 in 10.0 mi NNE 4.6 mph - N/A   Clear
5:15 AM 26.2 °F 20.7 °F 21.9 °F 84% 30.56 in 10.0 mi NNE 4.6 mph - N/A   Clear
5:35 AM 25.7 °F 21.5 °F 21.7 °F 85% 30.57 in 10.0 mi NNE 3.5 mph - N/A   Clear
5:55 AM 26.2 °F 22.1 °F 21.6 °F 82% 30.58 in 10.0 mi NNE 3.5 mph - N/A   Clear
6:15 AM 25.7 °F 21.5 °F 21.2 °F 83% 30.59 in 10.0 mi NE 3.5 mph - N/A   Clear
6:35 AM 25.7 °F 21.5 °F 21.2 °F 83% 30.59 in 10.0 mi NE 3.5 mph - N/A   Clear
6:55 AM 25.3 °F - 21.2 °F 84% 30.59 in 10.0 mi Calm Calm - N/A   Clear
7:15 AM 25.7 °F - 21.4 °F 84% 30.60 in 10.0 mi Calm Calm - N/A   Clear
7:35 AM 24.8 °F - 21.4 °F 87% 30.60 in 10.0 mi Calm Calm - N/A   Clear
7:55 AM 25.9 °F - 23.9 °F 92% 30.61 in 10.0 mi Calm Calm - N/A   Clear
8:15 AM 28.0 °F - 24.8 °F 88% 30.61 in 10.0 mi Calm Calm - N/A   Clear
8:35 AM 30.2 °F - 25.3 °F 82% 30.61 in 10.0 mi Calm Calm - N/A   Clear
8:55 AM 32.0 °F 26.4 °F 25.5 °F 77% 30.62 in 10.0 mi East 5.8 mph - N/A   Clear
9:15 AM 33.1 °F 30.0 °F 25.9 °F 75% 30.62 in 10.0 mi East 3.5 mph - N/A   Clear
9:35 AM 34.7 °F 29.6 °F 27.0 °F 73% 30.62 in 10.0 mi East 5.8 mph - N/A   Clear
9:55 AM 36.0 °F 30.3 °F 25.9 °F 67% 30.62 in 10.0 mi East 6.9 mph - N/A   Clear
10:15 AM 37.0 °F 31.6 °F 25.9 °F 64% 30.62 in 10.0 mi East 6.9 mph - N/A   Clear
10:35 AM 37.8 °F 31.8 °F 26.4 °F 64% 30.61 in 10.0 mi East 8.1 mph - N/A   Clear
10:55 AM 39.4 °F 34.5 °F 26.4 °F 60% 30.60 in 10.0 mi East 6.9 mph - N/A   Clear
11:15 AM 41.0 °F 37.1 °F 26.6 °F 57% 30.59 in 10.0 mi SE 5.8 mph - N/A   Clear
11:35 AM 41.9 °F 36.9 °F 26.6 °F 55% 30.58 in 10.0 mi East 8.1 mph - N/A   Clear
11:55 AM 42.3 °F 37.9 °F 26.2 °F 53% 30.58 in 10.0 mi ESE 6.9 mph - N/A   Clear
12:15 PM 43.0 °F 40.3 °F 25.7 °F 51% 30.57 in 10.0 mi ESE 4.6 mph - N/A   Clear
12:35 PM 43.9 °F 39.9 °F 25.5 °F 48% 30.56 in 10.0 mi East 6.9 mph - N/A   Clear
12:55 PM 44.6 °F 42.2 °F 26.2 °F 49% 30.56 in 10.0 mi SE 4.6 mph - N/A   Clear
1:15 PM 44.8 °F 41.6 °F 25.9 °F 48% 30.55 in 10.0 mi ESE 5.8 mph - N/A   Clear
1:35 PM 45.5 °F 42.5 °F 25.9 °F 46% 30.53 in 10.0 mi East 5.8 mph - N/A   Clear
1:55 PM 46.0 °F 43.1 °F 25.5 °F 45% 30.53 in 10.0 mi ESE 5.8 mph - N/A   Clear
2:15 PM 46.4 °F 43.5 °F 25.9 °F 45% 30.52 in 10.0 mi East 5.8 mph - N/A   Clear
2:35 PM 46.8 °F - 26.1 °F 44% 30.52 in 10.0 mi East 4.6 mph - N/A   Clear
2:55 PM 46.9 °F - 26.1 °F 44% 30.52 in 10.0 mi East 4.6 mph - N/A   Clear
3:15 PM 46.6 °F - 26.1 °F 45% 30.52 in 10.0 mi Calm Calm - N/A   Clear
3:35 PM 46.6 °F - 26.4 °F 45% 30.52 in 10.0 mi East 5.8 mph - N/A   Clear
3:55 PM 45.7 °F 42.7 °F 27.3 °F 49% 30.52 in 10.0 mi East 5.8 mph - N/A   Clear
4:15 PM 43.5 °F 39.4 °F 27.5 °F 53% 30.51 in 10.0 mi ENE 6.9 mph - N/A   Clear
4:35 PM 41.4 °F 38.4 °F 26.8 °F 56% 30.51 in 10.0 mi ENE 4.6 mph - N/A   Clear
4:55 PM 41.0 °F 37.1 °F 26.4 °F 56% 30.50 in 10.0 mi ENE 5.8 mph - N/A   Clear
5:15 PM 40.1 °F 36.1 °F 26.2 °F 58% 30.50 in 10.0 mi ENE 5.8 mph - N/A   Clear
5:35 PM 39.0 °F 35.7 °F 26.2 °F 60% 30.49 in 10.0 mi ENE 4.6 mph - N/A   Clear
5:55 PM 38.3 °F 34.8 °F 26.2 °F 62% 30.49 in 10.0 mi ENE 4.6 mph - N/A   Clear
6:15 PM 36.1 °F 31.4 °F 26.2 °F 67% 30.49 in 10.0 mi East 5.8 mph - N/A   Clear
6:35 PM 34.7 °F 30.6 °F 26.4 °F 72% 30.49 in 10.0 mi East 4.6 mph - N/A   Clear
6:55 PM 33.8 °F 29.6 °F 26.1 °F 73% 30.49 in 10.0 mi East 4.6 mph - N/A   Clear
7:15 PM 32.9 °F - 27.1 °F 79% 30.48 in 10.0 mi Calm Calm - N/A   Clear
7:35 PM 33.1 °F - 27.1 °F 79% 30.48 in 10.0 mi Calm Calm - N/A   Clear
7:55 PM 33.3 °F - 26.6 °F 77% 30.47 in 10.0 mi Calm Calm - N/A   Clear
8:15 PM 32.9 °F 28.5 °F 26.2 °F 76% 30.47 in 10.0 mi East 4.6 mph - N/A   Clear
8:35 PM 32.9 °F 28.5 °F 26.2 °F 76% 30.47 in 10.0 mi East 4.6 mph - N/A   Clear
8:55 PM 33.1 °F 30.0 °F 26.6 °F 77% 30.47 in 10.0 mi ESE 3.5 mph - N/A   Clear
9:15 PM 32.0 °F - 27.0 °F 82% 30.47 in 10.0 mi Calm Calm - N/A   Clear
9:35 PM 31.1 °F - 26.1 °F 82% 30.48 in 10.0 mi Calm Calm - N/A   Clear
9:55 PM 32.0 °F - 26.4 °F 80% 30.48 in 10.0 mi Calm Calm - N/A   Clear
10:15 PM 31.1 °F - 26.6 °F 83% 30.47 in 10.0 mi Calm Calm - N/A   Clear
10:35 PM 30.4 °F 25.6 °F 25.7 °F 83% 30.46 in 10.0 mi ESE 4.6 mph - N/A   Clear
10:55 PM 30.4 °F - 26.6 °F 86% 30.46 in 10.0 mi Calm Calm - N/A   Clear
11:15 PM 30.7 °F - 26.6 °F 85% 30.46 in 10.0 mi Calm Calm - N/A   Clear
11:35 PM 31.1 °F - 26.6 °F 83% 30.45 in 10.0 mi Calm Calm - N/A   Clear
11:55 PM 30.9 °F - 26.4 °F 83% 30.45 in 10.0 mi Calm Calm - N/A   Clear